Berlin, NH

4:55 AM EDT on July 27, 2017 (GMT -0400)
Berlin Municipal

Weather History for KBML - February, 2013

Change the Weather History Date:

Sunday, February 24, 2013

  Actual Average Record
Temperature  
Mean Temperature 30 °F -  
Max Temperature 33 °F 29 °F 59 °F (2017)
Min Temperature 28 °F 3 °F -27 °F (2015)
Degree Days  
Heating Degree Days 34    
Moisture  
Dew Point 27 °F    
Average Humidity 87    
Maximum Humidity 93    
Minimum Humidity 79    
Precipitation  
Precipitation 0.27 in - - ()
Sea Level Pressure  
Sea Level Pressure 29.81 in    
Wind  
Wind Speed 3 mph (NNW)    
Max Wind Speed 6 mph    
Max Gust Speed -    
Visibility 3 miles    
Events Fog , Snow    
Averages and records for this station are not official NWS values.
T = Trace of Precipitation, MM = Missing Value Source: NWS Daily Summary

Daily Weather History Graph

Daily Weather History Graph

Search for Another Location

Airport or City:

Trip Planner

Search our weather history database for the weather conditions in past years. The results will help you decide how hot, cold, wet, or windy it might be!

Date:

Astronomy

Feb. 24, 2013 Rise Set
Actual Time 6:30 AM EST 5:26 PM EST
Civil Twilight 6:00 AM EST 5:55 PM EST
Nautical Twilight 5:27 AM EST 6:29 PM EST
Astronomical Twilight 4:53 AM EST 7:03 PM EST
Moon 4:34 PM EST (2/24) 5:26 AM EST (2/24)
Length of Visible Light 11h 54m
Length of Day
10h 55m
Waxing Gibbous, 99% of the Moon is Illuminated
Feb 24
Waxing Gibbous
Feb 25
Full
Mar 4
Last Quarter
Mar 11
New
Mar 19
First Quarter

Hourly Weather History & Observations

Time (EST) Temp. Windchill Dew Point Humidity Pressure Visibility Wind Dir Wind Speed Gust Speed Precip Events Conditions
12:52 AM 32.0 °F 26.4 °F 26.1 °F 79% 29.94 in 10.0 mi SSE 5.8 mph - N/A   Overcast
1:52 AM 32.0 °F 26.4 °F 26.1 °F 79% 29.92 in 10.0 mi South 5.8 mph - 0.00 in   Overcast
2:52 AM 30.9 °F 26.2 °F 27.0 °F 85% 29.89 in 9.0 mi North 4.6 mph - 0.00 in   Overcast
3:52 AM 30.0 °F - 27.0 °F 88% 29.87 in 10.0 mi Calm Calm - 0.00 in   Overcast
4:05 AM 30.2 °F - 26.6 °F 86% 29.83 in 10.0 mi Calm Calm - N/A   Overcast
4:52 AM 30.0 °F 24.1 °F 27.0 °F 88% 29.87 in 10.0 mi North 5.8 mph - 0.00 in   Overcast
5:38 AM 30.2 °F 26.7 °F 26.6 °F 86% 29.83 in 2.0 mi NNW 3.5 mph - 0.01 in Snow Light Snow
5:45 AM 30.2 °F 26.7 °F 26.6 °F 86% 29.83 in 1.8 mi NW 3.5 mph - 0.01 in Snow Light Snow
5:52 AM 30.0 °F - 27.0 °F 88% 29.88 in 2.0 mi Calm Calm - 0.01 in Snow Light Snow
6:06 AM 30.2 °F - 26.6 °F 86% 29.83 in 4.0 mi Calm Calm - 0.00 in Snow Light Snow
6:31 AM 28.4 °F 24.6 °F 26.6 °F 93% 29.83 in 8.0 mi NNW 3.5 mph - 0.00 in   Overcast
6:52 AM 28.9 °F 25.2 °F 27.0 °F 92% 29.88 in 4.0 mi NNW 3.5 mph - 0.00 in Snow Light Snow
6:56 AM 28.4 °F 24.6 °F 26.6 °F 93% 29.83 in 2.0 mi NNW 3.5 mph - 0.00 in Snow Light Snow
7:03 AM 28.4 °F - 26.6 °F 93% 29.83 in 1.5 mi Calm Calm - 0.00 in Snow Light Snow
7:15 AM 28.4 °F - 26.6 °F 93% 29.83 in 2.5 mi Calm Calm - 0.00 in Snow Light Snow
7:35 AM 28.4 °F 24.6 °F 26.6 °F 93% 29.83 in 1.5 mi NW 3.5 mph - 0.00 in Snow Light Snow
7:52 AM 30.0 °F - 27.0 °F 88% 29.88 in 2.0 mi Calm Calm - 0.00 in Snow Light Snow
8:01 AM 30.2 °F 26.7 °F 26.6 °F 86% 29.83 in 1.5 mi NNW 3.5 mph - 0.00 in Snow Light Snow
8:22 AM 30.2 °F - 26.6 °F 86% 29.82 in 2.0 mi Calm Calm - 0.00 in Snow Light Snow
8:52 AM 30.0 °F - 27.0 °F 88% 29.86 in 4.0 mi Calm Calm - 0.01 in   Overcast
9:36 AM 30.2 °F 26.7 °F 26.6 °F 86% 29.80 in 2.5 mi NNW 3.5 mph - 0.00 in Snow Light Snow
9:52 AM 30.9 °F 27.5 °F 27.0 °F 85% 29.84 in 1.5 mi NNW 3.5 mph - 0.00 in Snow Light Snow
9:59 AM 30.2 °F - 26.6 °F 86% 29.80 in 1.2 mi Calm Calm - 0.01 in Snow Light Snow
10:10 AM 30.2 °F - 26.6 °F 86% 29.80 in 1.5 mi Calm Calm - 0.01 in Snow Light Snow
10:21 AM 30.2 °F - 26.6 °F 86% 29.79 in 1.0 mi Calm Calm - 0.01 in Snow Light Snow
10:33 AM 30.2 °F - 28.4 °F 93% 29.79 in 1.2 mi Calm Calm - 0.01 in Snow Light Snow
10:39 AM 30.2 °F 26.7 °F 26.6 °F 86% 29.79 in 2.0 mi WNW 3.5 mph - 0.01 in Snow Light Snow
10:48 AM 30.2 °F - 26.6 °F 86% 29.79 in 2.5 mi Calm Calm - 0.01 in Snow Light Snow
10:52 AM 30.9 °F - 27.0 °F 85% 29.84 in 3.0 mi Calm Calm - 0.01 in Snow Light Snow
11:08 AM 32.0 °F - 28.4 °F 87% 29.79 in 1.8 mi Calm Calm - 0.00 in Snow Light Snow
11:21 AM 32.0 °F - 28.4 °F 87% 29.78 in 1.2 mi Calm Calm - 0.01 in Snow Light Snow
11:41 AM 32.0 °F - 26.6 °F 80% 29.78 in 0.8 mi Calm Calm - 0.02 in Snow Light Snow
11:52 AM 32.0 °F - 28.0 °F 85% 29.82 in 0.8 mi Calm Calm - 0.02 in Snow Light Snow
12:05 PM 30.2 °F - 28.4 °F 93% 29.77 in 0.5 mi Calm Calm - 0.01 in Fog , Snow Snow
12:52 PM 30.9 °F - 28.9 °F 92% 29.81 in 0.5 mi Calm Calm - 0.03 in Fog , Snow Snow
1:02 PM 32.0 °F - 28.4 °F 87% 29.76 in 0.5 mi Calm Calm - 0.01 in Fog , Snow Light Snow
1:19 PM 30.2 °F - 28.4 °F 93% 29.76 in 0.8 mi Calm Calm - 0.01 in Snow Light Snow
1:31 PM 32.0 °F - 28.4 °F 87% 29.75 in 0.8 mi Calm Calm - 0.02 in Snow Light Snow
1:48 PM 32.0 °F 28.7 °F 28.4 °F 87% 29.75 in 0.8 mi NNW 3.5 mph - 0.02 in Snow Light Snow
1:52 PM 32.0 °F 28.7 °F 28.9 °F 88% 29.79 in 1.0 mi NNW 3.5 mph - 0.03 in Snow Light Snow
2:31 PM 32.0 °F - 28.4 °F 87% 29.74 in 1.8 mi Calm Calm - 0.00 in Snow Light Snow
2:34 PM 32.0 °F 28.7 °F 28.4 °F 87% 29.74 in 2.0 mi NNW 3.5 mph - 0.00 in Snow Light Snow
2:50 PM 32.0 °F 28.7 °F 28.4 °F 87% 29.74 in 1.8 mi NNW 3.5 mph - 0.00 in Snow Light Snow
2:52 PM 33.1 °F 30.0 °F 28.0 °F 82% 29.78 in 2.0 mi NNW 3.5 mph - 0.00 in Snow Light Snow
3:00 PM 32.0 °F 28.7 °F 28.4 °F 87% 29.74 in 1.8 mi NNW 3.5 mph - 0.00 in Snow Light Snow
3:09 PM 32.0 °F 27.5 °F 26.6 °F 80% 29.74 in 3.0 mi North 4.6 mph - 0.00 in Snow Light Snow
3:47 PM 32.0 °F 26.4 °F 26.6 °F 80% 29.73 in 10.0 mi North 5.8 mph - 0.00 in   Overcast
3:52 PM 32.0 °F 26.4 °F 26.1 °F 79% 29.78 in 10.0 mi NNW 5.8 mph - 0.00 in   Overcast
4:44 PM 32.0 °F 28.7 °F 26.6 °F 80% 29.74 in 1.8 mi NNW 3.5 mph - 0.00 in Snow Light Snow
4:52 PM 30.9 °F 27.5 °F 27.0 °F 85% 29.79 in 1.2 mi NNW 3.5 mph - 0.00 in Snow Light Snow
4:59 PM 30.2 °F 26.7 °F 26.6 °F 86% 29.75 in 1.0 mi NNW 3.5 mph - 0.00 in Snow Light Snow
5:38 PM 30.2 °F - 26.6 °F 86% 29.76 in 1.8 mi Calm Calm - 0.02 in Snow Light Snow
5:52 PM 30.0 °F - 27.0 °F 88% 29.81 in 1.8 mi Calm Calm - 0.02 in Snow Light Snow
6:49 PM 30.2 °F - 28.4 °F 93% 29.78 in 1.2 mi Calm Calm - 0.02 in Snow Light Snow
6:52 PM 30.0 °F - 28.0 °F 92% 29.83 in 1.2 mi Calm Calm - 0.02 in Snow Light Snow
7:10 PM 30.2 °F - 28.4 °F 93% 29.79 in 1.0 mi Calm Calm - 0.01 in Snow Light Snow
7:50 PM 30.2 °F - 28.4 °F 93% 29.80 in 0.8 mi Calm Calm - 0.04 in Snow Light Snow
7:52 PM 30.0 °F - 28.0 °F 92% 29.85 in 0.8 mi Calm Calm - 0.04 in Snow Light Snow
8:01 PM 30.2 °F - 28.4 °F 93% 29.80 in 1.0 mi Calm Calm - 0.00 in Snow Light Snow
8:52 PM 30.0 °F - 28.0 °F 92% 29.87 in 1.2 mi Calm Calm - 0.03 in Snow Light Snow
9:06 PM 30.2 °F 26.7 °F 26.6 °F 86% 29.83 in 1.2 mi NNW 3.5 mph - 0.01 in Snow Light Snow
9:24 PM 30.2 °F 26.7 °F 26.6 °F 86% 29.83 in 1.8 mi NNW 3.5 mph - 0.02 in Snow Light Snow
9:37 PM 30.2 °F 26.7 °F 26.6 °F 86% 29.83 in 2.0 mi NNW 3.5 mph - 0.02 in Snow Light Snow
9:52 PM 28.9 °F 25.2 °F 26.1 °F 89% 29.88 in 2.0 mi NNW 3.5 mph - 0.02 in Snow Light Snow
10:15 PM 28.4 °F 24.6 °F 26.6 °F 93% 29.84 in 1.8 mi NNW 3.5 mph - 0.01 in Snow Light Snow
10:52 PM 28.9 °F 25.2 °F 26.1 °F 89% 29.89 in 2.5 mi NNW 3.5 mph - 0.02 in Snow Light Snow
11:11 PM 28.4 °F 23.3 °F 24.8 °F 86% 29.84 in 2.5 mi NW 4.6 mph - 0.00 in Snow Light Snow
11:40 PM 28.4 °F 24.6 °F 24.8 °F 86% 29.85 in 2.5 mi NW 3.5 mph - 0.01 in Snow Light Snow
11:52 PM 28.0 °F - 25.0 °F 88% 29.90 in 2.5 mi Calm Calm - 0.01 in Snow Light Snow